"Sample Date","Sample Time","Sample Value","Units","Flow Rate","Laser Status","Micron Size 0","Counts/Channel 0","Micron Size 1","Counts/Channel 1","Micron Size 2","Counts/Channel 2","Micron Size 3","Counts/Channel 3","Micron Size 4","Counts/Channel 4","Micron Size 5","Counts/Channel 5","Micron Size 6","Counts/Channel 6","Micron Size 7","Counts/Channel 7","Micron Size 8","Counts/Channel 8","Micron Size 9","Counts/Channel 9","Micron Size 10","Counts/Channel 10","Micron Size 11","Counts/Channel 11","Micron Size 12","Counts/Channel 12","Micron Size 13","Counts/Channel 13","Micron Size 14","Counts/Channel 14","Micron Size 15","Counts/Channel 15","Micron Size 16","Counts/Channel 16","Micron Size 17","Counts/Channel 17","Micron Size 18","Counts/Channel 18","Micron Size 19","Counts/Channel 19","Micron Size 20","Counts/Channel 20","Micron Size 21","Counts/Channel 21","Micron Size 22","Counts/Channel 22","Micron Size 23","Counts/Channel 23","Micron Size 24","Counts/Channel 24","Micron Size 25","Counts/Channel 25","Micron Size 26","Counts/Channel 26","Micron Size 27","Counts/Channel 27","Micron Size 28","Counts/Channel 28","Micron Size 29","Counts/Channel 29","Micron Size 30","Counts/Channel 30","Micron Size 31","Counts/Channel 31"
"05/02/07","17:00:03",43949.000,"cc",28333.750,1,0.100,36303.000,0.200,6923.000,0.300,640.000,0.500,64.000,1.000,19.000,5.000,0
"05/02/07","17:00:09",43306.000,"cc",28227.926,1,0.100,35793.000,0.200,6846.000,0.300,586.000,0.500,64.000,1.000,17.000,5.000,0
"05/02/07","17:00:15",43262.000,"cc",28290.973,1,0.100,35768.000,0.200,6797.000,0.300,626.000,0.500,52.000,1.000,18.000,5.000,1.000
"05/02/07","17:00:21",43248.000,"cc",28358.436,1,0.100,35787.000,0.200,6756.000,0.300,615.000,0.500,69.000,1.000,21.000,5.000,0
"05/02/07","17:00:27",42773.000,"cc",28326.424,1,0.100,35234.000,0.200,6863.000,0.300,583.000,0.500,81.000,1.000,12.000,5.000,0
"05/02/07","17:00:33",42833.000,"cc",28395.574,1,0.100,35332.000,0.200,6755.000,0.300,658.000,0.500,61.000,1.000,26.000,5.000,1.000
"05/02/07","17:00:39",42914.000,"cc",28281.981,1,0.100,35285.000,0.200,6910.000,0.300,649.000,0.500,58.000,1.000,12.000,5.000,0
"05/02/07","17:00:45",42630.000,"cc",28319.740,1,0.100,35240.000,0.200,6737.000,0.300,585.000,0.500,60.000,1.000,8.000,5.000,0
"05/02/07","17:00:51",42433.000,"cc",28296.277,1,0.100,35070.000,0.200,6713.000,0.300,572.000,0.500,57.000,1.000,21.000,5.000,0
"05/02/07","17:00:57",42305.000,"cc",28300.699,1,0.100,34904.000,0.200,6736.000,0.300,588.000,0.500,63.000,1.000,14.000,5.000,0
"05/02/07","17:01:03",42314.000,"cc",28326.465,1,0.100,34893.000,0.200,6730.000,0.300,621.000,0.500,61.000,1.000,9.000,5.000,0
"05/02/07","17:01:09",42242.000,"cc",28323.852,1,0.100,34745.000,0.200,6779.000,0.300,637.000,0.500,60.000,1.000,21.000,5.000,0
"05/02/07","17:01:15",41830.000,"cc",28304.420,1,0.100,34497.000,0.200,6653.000,0.300,606.000,0.500,60.000,1.000,14.000,5.000,0
"05/02/07","17:01:21",41737.000,"cc",28251.484,1,0.100,34407.000,0.200,6666.000,0.300,589.000,0.500,65.000,1.000,10.000,5.000,0
"05/02/07","17:01:27",41397.000,"cc",28290.486,1,0.100,34227.000,0.200,6534.000,0.300,573.000,0.500,48.000,1.000,15.000,5.000,0
"05/02/07","17:01:33",41669.000,"cc",28369.557,1,0.100,34331.000,0.200,6656.000,0.300,614.000,0.500,52.000,1.000,15.000,5.000,1.000
"05/02/07","17:01:39",41105.000,"cc",28380.260,1,0.100,33958.000,0.200,6486.000,0.300,603.000,0.500,51.000,1.000,7.000,5.000,0
"05/02/07","17:01:45",41084.000,"cc",28364.246,1,0.100,33904.000,0.200,6549.000,0.300,584.000,0.500,37.000,1.000,10.000,5.000,0
"05/02/07","17:01:51",40435.000,"cc",28346.621,1,0.100,33465.000,0.200,6347.000,0.300,553.000,0.500,56.000,1.000,14.000,5.000,0
"05/02/07","17:01:57",40143.000,"cc",28236.885,1,0.100,33070.000,0.200,6453.000,0.300,550.000,0.500,55.000,1.000,15.000,5.000,0
"05/02/07","17:02:03",39911.000,"cc",28281.518,1,0.100,32991.000,0.200,6304.000,0.300,550.000,0.500,50.000,1.000,16.000,5.000,0
"05/02/07","17:02:09",40773.000,"cc",28324.303,1,0.100,33657.000,0.200,6487.000,0.300,574.000,0.500,42.000,1.000,13.000,5.000,0
"05/02/07","17:02:15",41700.000,"cc",28345.289,1,0.100,34464.000,0.200,6549.000,0.300,613.000,0.500,56.000,1.000,17.000,5.000,1.000
"05/02/07","17:02:21",41051.000,"cc",28343.006,1,0.100,33842.000,0.200,6542.000,0.300,600.000,0.500,53.000,1.000,14.000,5.000,0
"05/02/07","17:02:27",41826.000,"cc",28273.873,1,0.100,34507.000,0.200,6652.000,0.300,586.000,0.500,67.000,1.000,14.000,5.000,0
"05/02/07","17:02:33",41387.000,"cc",28306.074,1,0.100,34032.000,0.200,6683.000,0.300,592.000,0.500,65.000,1.000,15.000,5.000,0
"05/02/07","17:02:39",42603.000,"cc",28331.863,1,0.100,35109.000,0.200,6768.000,0.300,636.000,0.500,77.000,1.000,13.000,5.000,0
"05/02/07","17:02:45",42639.000,"cc",28300.797,1,0.100,35355.000,0.200,6604.000,0.300,601.000,0.500,64.000,1.000,15.000,5.000,0
"05/02/07","17:02:51",43473.000,"cc",28338.369,1,0.100,35930.000,0.200,6797.000,0.300,651.000,0.500,75.000,1.000,20.000,5.000,0
"05/02/07","17:02:57",45107.000,"cc",28346.152,1,0.100,37444.000,0.200,6915.000,0.300,663.000,0.500,73.000,1.000,12.000,5.000,0
"05/02/07","17:03:03",44267.000,"cc",28323.432,1,0.100,36603.000,0.200,6861.000,0.300,712.000,0.500,74.000,1.000,16.000,5.000,1.000
"05/02/07","17:03:09",43511.000,"cc",28295.014,1,0.100,35863.000,0.200,6926.000,0.300,654.000,0.500,54.000,1.000,14.000,5.000,0
"05/02/07","17:03:15",43777.000,"cc",28284.459,1,0.100,36126.000,0.200,6865.000,0.300,708.000,0.500,59.000,1.000,18.000,5.000,1.000
"05/02/07","17:03:21",44291.000,"cc",28311.158,1,0.100,36607.000,0.200,6935.000,0.300,659.000,0.500,76.000,1.000,14.000,5.000,0
"05/02/07","17:03:27",43308.000,"cc",28318.961,1,0.100,35724.000,0.200,6771.000,0.300,724.000,0.500,68.000,1.000,21.000,5.000,0
"05/02/07","17:03:33",41849.000,"cc",28336.168,1,0.100,34481.000,0.200,6652.000,0.300,648.000,0.500,59.000,1.000,9.000,5.000,0
"05/02/07","17:03:39",40899.000,"cc",28312.682,1,0.100,33860.000,0.200,6376.000,0.300,592.000,0.500,60.000,1.000,11.000,5.000,0
"05/02/07","17:03:45",40429.000,"cc",28356.268,1,0.100,33394.000,0.200,6345.000,0.300,619.000,0.500,63.000,1.000,8.000,5.000,0
"05/02/07","17:03:51",40390.000,"cc",28284.920,1,0.100,33288.000,0.200,6440.000,0.300,591.000,0.500,59.000,1.000,12.000,5.000,0
"05/02/07","17:03:57",40498.000,"cc",28305.781,1,0.100,33489.000,0.200,6319.000,0.300,640.000,0.500,44.000,1.000,6.000,5.000,0
"05/02/07","17:04:03",39962.000,"cc",28257.309,1,0.100,33050.000,0.200,6211.000,0.300,625.000,0.500,65.000,1.000,11.000,5.000,0
"05/02/07","17:04:09",39526.000,"cc",28290.453,1,0.100,32560.000,0.200,6313.000,0.300,594.000,0.500,48.000,1.000,11.000,5.000,0
"05/02/07","17:04:15",39281.000,"cc",28360.039,1,0.100,32413.000,0.200,6212.000,0.300,594.000,0.500,49.000,1.000,12.000,5.000,1.000
"05/02/07","17:04:21",38900.000,"cc",28403.299,1,0.100,32026.000,0.200,6256.000,0.300,560.000,0.500,53.000,1.000,5.000,5.000,0
"05/02/07","17:04:27",39049.000,"cc",28323.055,1,0.100,32166.000,0.200,6250.000,0.300,568.000,0.500,49.000,1.000,16.000,5.000,0
"05/02/07","17:04:33",38963.000,"cc",28304.746,1,0.100,32118.000,0.200,6208.000,0.300,576.000,0.500,48.000,1.000,13.000,5.000,0
"05/02/07","17:04:39",38229.000,"cc",28342.574,1,0.100,31510.000,0.200,6095.000,0.300,576.000,0.500,38.000,1.000,10.000,5.000,0
"05/02/07","17:04:45",38134.000,"cc",28271.059,1,0.100,31418.000,0.200,6039.000,0.300,625.000,0.500,47.000,1.000,5.000,5.000,0
"05/02/07","17:04:51",37729.000,"cc",28275.527,1,0.100,31182.000,0.200,5922.000,0.300,568.000,0.500,49.000,1.000,8.000,5.000,0
"05/02/07","17:04:57",37976.000,"cc",28288.572,1,0.100,31121.000,0.200,6179.000,0.300,609.000,0.500,56.000,1.000,11.000,5.000,0
"05/02/07","17:05:03",37395.000,"cc",28354.711,1,0.100,30764.000,0.200,5952.000,0.300,608.000,0.500,60.000,1.000,11.000,5.000,0
"05/02/07","17:05:09",37075.000,"cc",28352.109,1,0.100,30572.000,0.200,5911.000,0.300,532.000,0.500,52.000,1.000,8.000,5.000,0
"05/02/07","17:05:15",37443.000,"cc",28328.838,1,0.100,30777.000,0.200,6006.000,0.300,605.000,0.500,49.000,1.000,6.000,5.000,0
"05/02/07","17:05:21",37144.000,"cc",28308.770,1,0.100,30445.000,0.200,6081.000,0.300,570.000,0.500,41.000,1.000,7.000,5.000,0
"05/02/07","17:05:27",36819.000,"cc",28297.490,1,0.100,30274.000,0.200,5903.000,0.300,587.000,0.500,44.000,1.000,11.000,5.000,0
"05/02/07","17:05:33",37019.000,"cc",28274.438,1,0.100,30415.000,0.200,5964.000,0.300,600.000,0.500,34.000,1.000,6.000,5.000,0
"05/02/07","17:05:39",36787.000,"cc",28275.797,1,0.100,30334.000,0.200,5795.000,0.300,585.000,0.500,67.000,1.000,6.000,5.000,0
"05/02/07","17:05:45",36970.000,"cc",28347.420,1,0.100,30474.000,0.200,5832.000,0.300,593.000,0.500,63.000,1.000,8.000,5.000,0
"05/02/07","17:05:51",36635.000,"cc",28386.326,1,0.100,30177.000,0.200,5824.000,0.300,571.000,0.500,53.000,1.000,10.000,5.000,0
"05/02/07","17:05:57",36303.000,"cc",28308.711,1,0.100,30052.000,0.200,5636.000,0.300,558.000,0.500,48.000,1.000,9.000,5.000,0
"05/02/07","17:06:03",36264.000,"cc",28307.949,1,0.100,29925.000,0.200,5748.000,0.300,546.000,0.500,42.000,1.000,3.000,5.000,0
"05/02/07","17:06:09",35997.000,"cc",28288.393,1,0.100,29828.000,0.200,5571.000,0.300,553.000,0.500,41.000,1.000,4.000,5.000,0
"05/02/07","17:06:15",36410.000,"cc",28287.018,1,0.100,30159.000,0.200,5606.000,0.300,585.000,0.500,51.000,1.000,9.000,5.000,0
"05/02/07","17:06:21",36076.000,"cc",28324.330,1,0.100,29802.000,0.200,5636.000,0.300,581.000,0.500,46.000,1.000,11.000,5.000,0
"05/02/07","17:06:27",36387.000,"cc",28342.520,1,0.100,30057.000,0.200,5707.000,0.300,579.000,0.500,39.000,1.000,5.000,5.000,0
"05/02/07","17:06:33",35827.000,"cc",28313.238,1,0.100,29499.000,0.200,5736.000,0.300,549.000,0.500,41.000,1.000,2.000,5.000,0
"05/02/07","17:06:39",36027.000,"cc",28301.275,1,0.100,29664.000,0.200,5717.000,0.300,594.000,0.500,48.000,1.000,4.000,5.000,0
"05/02/07","17:06:45",35698.000,"cc",28310.994,1,0.100,29420.000,0.200,5715.000,0.300,525.000,0.500,34.000,1.000,4.000,5.000,0
"05/02/07","17:06:51",36102.000,"cc",28303.516,1,0.100,29776.000,0.200,5695.000,0.300,567.000,0.500,55.000,1.000,9.000,5.000,0
"05/02/07","17:06:57",35404.000,"cc",28327.982,1,0.100,29168.000,0.200,5612.000,0.300,568.000,0.500,52.000,1.000,4.000,5.000,0
"05/02/07","17:07:03",35757.000,"cc",28312.838,1,0.100,29517.000,0.200,5637.000,0.300,558.000,0.500,41.000,1.000,4.000,5.000,0
"05/02/07","17:07:09",35706.000,"cc",28321.715,1,0.100,29440.000,0.200,5650.000,0.300,562.000,0.500,49.000,1.000,5.000,5.000,0
"05/02/07","17:07:15",35485.000,"cc",28339.902,1,0.100,29301.000,0.200,5588.000,0.300,547.000,0.500,46.000,1.000,3.000,5.000,0
"05/02/07","17:07:21",35695.000,"cc",28340.477,1,0.100,29547.000,0.200,5578.000,0.300,516.000,0.500,50.000,1.000,4.000,5.000,0
"05/02/07","17:07:27",35142.000,"cc",28358.379,1,0.100,28996.000,0.200,5546.000,0.300,559.000,0.500,35.000,1.000,6.000,5.000,0
"05/02/07","17:07:33",35383.000,"cc",28329.258,1,0.100,29180.000,0.200,5580.000,0.300,559.000,0.500,60.000,1.000,4.000,5.000,0
"05/02/07","17:07:39",35261.000,"cc",28323.490,1,0.100,29076.000,0.200,5592.000,0.300,527.000,0.500,60.000,1.000,6.000,5.000,0
"05/02/07","17:07:45",35119.000,"cc",28286.465,1,0.100,28953.000,0.200,5521.000,0.300,583.000,0.500,52.000,1.000,10.000,5.000,0
"05/02/07","17:07:51",35068.000,"cc",28303.885,1,0.100,28854.000,0.200,5601.000,0.300,561.000,0.500,47.000,1.000,5.000,5.000,0
"05/02/07","17:07:57",34914.000,"cc",28361.758,1,0.100,28782.000,0.200,5513.000,0.300,570.000,0.500,43.000,1.000,6.000,5.000,0
"05/02/07","17:08:03",34387.000,"cc",28305.856,1,0.100,28434.000,0.200,5364.000,0.300,540.000,0.500,45.000,1.000,4.000,5.000,0
"05/02/07","17:08:09",34678.000,"cc",28261.190,1,0.100,28696.000,0.200,5407.000,0.300,520.000,0.500,52.000,1.000,3.000,5.000,0
"05/02/07","17:08:15",34823.000,"cc",28308.816,1,0.100,28688.000,0.200,5573.000,0.300,519.000,0.500,38.000,1.000,5.000,5.000,0
"05/02/07","17:08:21",34359.000,"cc",28292.076,1,0.100,28374.000,0.200,5351.000,0.300,580.000,0.500,47.000,1.000,7.000,5.000,0
"05/02/07","17:08:27",34655.000,"cc",28360.772,1,0.100,28536.000,0.200,5537.000,0.300,533.000,0.500,44.000,1.000,5.000,5.000,0
"05/02/07","17:08:33",34711.000,"cc",28375.406,1,0.100,28802.000,0.200,5281.000,0.300,574.000,0.500,46.000,1.000,8.000,5.000,0
"05/02/07","17:08:39",34445.000,"cc",28317.330,1,0.100,28402.000,0.200,5496.000,0.300,500.000,0.500,43.000,1.000,4.000,5.000,0
"05/02/07","17:08:45",34570.000,"cc",28312.471,1,0.100,28605.000,0.200,5352.000,0.300,556.000,0.500,51.000,1.000,6.000,5.000,0
"05/02/07","17:08:51",34232.000,"cc",28271.479,1,0.100,28300.000,0.200,5351.000,0.300,528.000,0.500,46.000,1.000,7.000,5.000,0
"05/02/07","17:08:57",34094.000,"cc",28325.332,1,0.100,28175.000,0.200,5358.000,0.300,513.000,0.500,45.000,1.000,3.000,5.000,0
"05/02/07","17:09:03",34022.000,"cc",28287.830,1,0.100,28135.000,0.200,5289.000,0.300,551.000,0.500,45.000,1.000,2.000,5.000,0
"05/02/07","17:09:09",34065.000,"cc",28381.152,1,0.100,28171.000,0.200,5302.000,0.300,545.000,0.500,42.000,1.000,5.000,5.000,0
"05/02/07","17:09:15",34193.000,"cc",28267.459,1,0.100,28298.000,0.200,5323.000,0.300,528.000,0.500,41.000,1.000,3.000,5.000,0
"05/02/07","17:09:21",34245.000,"cc",28314.773,1,0.100,28250.000,0.200,5409.000,0.300,531.000,0.500,48.000,1.000,7.000,5.000,0
"05/02/07","17:09:27",33858.000,"cc",28319.234,1,0.100,27978.000,0.200,5306.000,0.300,527.000,0.500,41.000,1.000,6.000,5.000,0
"05/02/07","17:09:33",34600.000,"cc",28309.264,1,0.100,28544.000,0.200,5453.000,0.300,546.000,0.500,53.000,1.000,4.000,5.000,0
"05/02/07","17:09:39",34573.000,"cc",28301.709,1,0.100,28485.000,0.200,5494.000,0.300,529.000,0.500,55.000,1.000,10.000,5.000,0
"05/02/07","17:09:45",34164.000,"cc",28348.315,1,0.100,28410.000,0.200,5193.000,0.300,518.000,0.500,38.000,1.000,5.000,5.000,0
"05/02/07","17:09:51",33703.000,"cc",28292.338,1,0.100,27963.000,0.200,5160.000,0.300,524.000,0.500,50.000,1.000,6.000,5.000,0
"05/02/07","17:09:57",33302.000,"cc",28354.725,1,0.100,27614.000,0.200,5097.000,0.300,532.000,0.500,56.000,1.000,3.000,5.000,0
"05/02/07","17:10:03",33271.000,"cc",28332.176,1,0.100,27483.000,0.200,5220.000,0.300,522.000,0.500,43.000,1.000,3.000,5.000,0
"05/02/07","17:10:09",33024.000,"cc",28289.293,1,0.100,27368.000,0.200,5066.000,0.300,537.000,0.500,44.000,1.000,9.000,5.000,0
"05/02/07","17:10:15",32895.000,"cc",28319.057,1,0.100,27225.000,0.200,5121.000,0.300,505.000,0.500,39.000,1.000,5.000,5.000,0
"05/02/07","17:10:21",33406.000,"cc",28318.510,1,0.100,27602.000,0.200,5230.000,0.300,528.000,0.500,39.000,1.000,7.000,5.000,0
"05/02/07","17:10:27",32908.000,"cc",28334.303,1,0.100,27320.000,0.200,5046.000,0.300,485.000,0.500,48.000,1.000,9.000,5.000,0
"05/02/07","17:10:33",32812.000,"cc",28330.027,1,0.100,27120.000,0.200,5123.000,0.300,508.000,0.500,47.000,1.000,14.000,5.000,0
"05/02/07","17:10:39",32168.000,"cc",28291.012,1,0.100,26467.000,0.200,5141.000,0.300,510.000,0.500,47.000,1.000,3.000,5.000,0
"05/02/07","17:10:45",32361.000,"cc",28281.578,1,0.100,26802.000,0.200,4984.000,0.300,537.000,0.500,35.000,1.000,3.000,5.000,0
"05/02/07","17:10:51",32799.000,"cc",28299.742,1,0.100,27107.000,0.200,5092.000,0.300,540.000,0.500,55.000,1.000,5.000,5.000,0
"05/02/07","17:10:57",33427.000,"cc",28349.529,1,0.100,27730.000,0.200,5121.000,0.300,517.000,0.500,53.000,1.000,6.000,5.000,0
"05/02/07","17:11:03",32629.000,"cc",28350.238,1,0.100,27017.000,0.200,5086.000,0.300,494.000,0.500,30.000,1.000,2.000,5.000,0
"05/02/07","17:11:09",33509.000,"cc",28317.070,1,0.100,27780.000,0.200,5138.000,0.300,543.000,0.500,43.000,1.000,5.000,5.000,0
"05/02/07","17:11:15",34044.000,"cc",28382.205,1,0.100,28173.000,0.200,5313.000,0.300,514.000,0.500,38.000,1.000,6.000,5.000,0
"05/02/07","17:11:21",34287.000,"cc",28269.773,1,0.100,28477.000,0.200,5225.000,0.300,520.000,0.500,55.000,1.000,10.000,5.000,0
"05/02/07","17:11:27",35087.000,"cc",28295.650,1,0.100,29176.000,0.200,5318.000,0.300,527.000,0.500,56.000,1.000,10.000,5.000,0
"05/02/07","17:11:33",35763.000,"cc",28343.248,1,0.100,29682.000,0.200,5518.000,0.300,502.000,0.500,56.000,1.000,5.000,5.000,0
"05/02/07","17:11:39",34911.000,"cc",28280.240,1,0.100,28921.000,0.200,5406.000,0.300,517.000,0.500,59.000,1.000,8.000,5.000,0
"05/02/07","17:11:45",33454.000,"cc",28312.754,1,0.100,27808.000,0.200,5082.000,0.300,500.000,0.500,58.000,1.000,6.000,5.000,0
"05/02/07","17:11:51",33583.000,"cc",28354.900,1,0.100,27854.000,0.200,5170.000,0.300,496.000,0.500,50.000,1.000,13.000,5.000,0
"05/02/07","17:11:57",32585.000,"cc",28281.744,1,0.100,26949.000,0.200,5081.000,0.300,479.000,0.500,62.000,1.000,14.000,5.000,0
"05/02/07","17:12:03",32571.000,"cc",28300.186,1,0.100,26955.000,0.200,5035.000,0.300,517.000,0.500,53.000,1.000,11.000,5.000,0
"05/02/07","17:12:09",32293.000,"cc",28306.373,1,0.100,26745.000,0.200,5029.000,0.300,473.000,0.500,41.000,1.000,5.000,5.000,0
"05/02/07","17:12:15",31831.000,"cc",28330.582,1,0.100,26352.000,0.200,4943.000,0.300,467.000,0.500,59.000,1.000,10.000,5.000,0
"05/02/07","17:12:21",31209.000,"cc",28280.008,1,0.100,25870.000,0.200,4801.000,0.300,484.000,0.500,43.000,1.000,11.000,5.000,0
"05/02/07","17:12:27",31538.000,"cc",28339.164,1,0.100,26243.000,0.200,4768.000,0.300,477.000,0.500,42.000,1.000,8.000,5.000,0
"05/02/07","17:12:33",30979.000,"cc",28317.721,1,0.100,25700.000,0.200,4739.000,0.300,487.000,0.500,47.000,1.000,6.000,5.000,0
"05/02/07","17:12:39",31058.000,"cc",28338.406,1,0.100,25811.000,0.200,4755.000,0.300,441.000,0.500,39.000,1.000,12.000,5.000,0
"05/02/07","17:12:45",30554.000,"cc",28280.631,1,0.100,25364.000,0.200,4709.000,0.300,423.000,0.500,49.000,1.000,9.000,5.000,0
"05/02/07","17:12:51",30940.000,"cc",28350.264,1,0.100,25525.000,0.200,4891.000,0.300,472.000,0.500,42.000,1.000,10.000,5.000,0
"05/02/07","17:12:57",30581.000,"cc",28348.863,1,0.100,25357.000,0.200,4740.000,0.300,442.000,0.500,37.000,1.000,5.000,5.000,0
"05/02/07","17:13:03",30650.000,"cc",28313.512,1,0.100,25388.000,0.200,4727.000,0.300,472.000,0.500,53.000,1.000,10.000,5.000,0
"05/02/07","17:13:09",30251.000,"cc",28312.584,1,0.100,25085.000,0.200,4654.000,0.300,448.000,0.500,51.000,1.000,13.000,5.000,0
"05/02/07","17:13:15",30148.000,"cc",28333.363,1,0.100,25130.000,0.200,4487.000,0.300,476.000,0.500,49.000,1.000,6.000,5.000,0
"05/02/07","17:13:21",29596.000,"cc",28351.885,1,0.100,24591.000,0.200,4514.000,0.300,447.000,0.500,40.000,1.000,4.000,5.000,0
"05/02/07","17:13:27",30137.000,"cc",28278.033,1,0.100,24942.000,0.200,4701.000,0.300,448.000,0.500,37.000,1.000,9.000,5.000,0
"05/02/07","17:13:33",30219.000,"cc",28352.875,1,0.100,25118.000,0.200,4596.000,0.300,451.000,0.500,51.000,1.000,3.000,5.000,0
"05/02/07","17:13:39",29846.000,"cc",28250.674,1,0.100,24684.000,0.200,4645.000,0.300,457.000,0.500,48.000,1.000,12.000,5.000,0
"05/02/07","17:13:45",29637.000,"cc",28327.430,1,0.100,24566.000,0.200,4555.000,0.300,468.000,0.500,35.000,1.000,13.000,5.000,0
"05/02/07","17:13:51",29246.000,"cc",28360.506,1,0.100,24269.000,0.200,4476.000,0.300,458.000,0.500,40.000,1.000,3.000,5.000,0
"05/02/07","17:13:57",29020.000,"cc",28297.234,1,0.100,24069.000,0.200,4438.000,0.300,465.000,0.500,41.000,1.000,7.000,5.000,0
"05/02/07","17:14:03",29319.000,"cc",28307.760,1,0.100,24279.000,0.200,4504.000,0.300,476.000,0.500,54.000,1.000,6.000,5.000,0
"05/02/07","17:14:09",29364.000,"cc",28321.973,1,0.100,24419.000,0.200,4465.000,0.300,430.000,0.500,44.000,1.000,6.000,5.000,0
"05/02/07","17:14:15",29507.000,"cc",28345.318,1,0.100,24466.000,0.200,4554.000,0.300,439.000,0.500,40.000,1.000,8.000,5.000,0
"05/02/07","17:14:21",29437.000,"cc",28314.102,1,0.100,24432.000,0.200,4496.000,0.300,457.000,0.500,44.000,1.000,8.000,5.000,0
"05/02/07","17:14:27",29377.000,"cc",28341.834,1,0.100,24398.000,0.200,4534.000,0.300,394.000,0.500,46.000,1.000,5.000,5.000,0
"05/02/07","17:14:33",29027.000,"cc",28295.897,1,0.100,24048.000,0.200,4482.000,0.300,442.000,0.500,46.000,1.000,9.000,5.000,0
"05/02/07","17:14:39",28871.000,"cc",28351.012,1,0.100,23829.000,0.200,4515.000,0.300,472.000,0.500,52.000,1.000,3.000,5.000,0
"05/02/07","17:14:45",28565.000,"cc",28336.611,1,0.100,23685.000,0.200,4423.000,0.300,407.000,0.500,41.000,1.000,9.000,5.000,0
"05/02/07","17:14:51",29079.000,"cc",28322.842,1,0.100,24224.000,0.200,4359.000,0.300,442.000,0.500,45.000,1.000,9.000,5.000,0
"05/02/07","17:14:57",28569.000,"cc",28244.477,1,0.100,23666.000,0.200,4427.000,0.300,424.000,0.500,46.000,1.000,6.000,5.000,0
"05/02/07","17:15:03",28596.000,"cc",28292.393,1,0.100,23765.000,0.200,4352.000,0.300,425.000,0.500,44.000,1.000,10.000,5.000,0
"05/02/07","17:15:09",28574.000,"cc",28309.537,1,0.100,23688.000,0.200,4416.000,0.300,426.000,0.500,42.000,1.000,2.000,5.000,0
"05/02/07","17:15:15",28655.000,"cc",28348.670,1,0.100,23781.000,0.200,4375.000,0.300,448.000,0.500,47.000,1.000,4.000,5.000,0
"05/02/07","17:15:21",28409.000,"cc",28315.342,1,0.100,23625.000,0.200,4313.000,0.300,421.000,0.500,44.000,1.000,6.000,5.000,0
"05/02/07","17:15:27",28432.000,"cc",28308.936,1,0.100,23674.000,0.200,4265.000,0.300,434.000,0.500,51.000,1.000,8.000,5.000,0
"05/02/07","17:15:33",28357.000,"cc",28341.219,1,0.100,23698.000,0.200,4191.000,0.300,423.000,0.500,37.000,1.000,8.000,5.000,0
"05/02/07","17:15:39",28309.000,"cc",28301.746,1,0.100,23573.000,0.200,4215.000,0.300,449.000,0.500,66.000,1.000,6.000,5.000,0
"05/02/07","17:15:45",28617.000,"cc",28303.275,1,0.100,23868.000,0.200,4244.000,0.300,446.000,0.500,55.000,1.000,4.000,5.000,0
"05/02/07","17:15:51",28863.000,"cc",28307.184,1,0.100,23887.000,0.200,4478.000,0.300,451.000,0.500,44.000,1.000,3.000,5.000,0
"05/02/07","17:15:57",29157.000,"cc",28327.682,1,0.100,24267.000,0.200,4429.000,0.300,414.000,0.500,39.000,1.000,8.000,5.000,0
"05/02/07","17:16:03",28409.000,"cc",28297.231,1,0.100,23547.000,0.200,4375.000,0.300,448.000,0.500,35.000,1.000,4.000,5.000,0
"05/02/07","17:16:09",28924.000,"cc",28319.356,1,0.100,24073.000,0.200,4363.000,0.300,448.000,0.500,36.000,1.000,4.000,5.000,0
"05/02/07","17:16:15",28423.000,"cc",28317.104,1,0.100,23597.000,0.200,4320.000,0.300,446.000,0.500,49.000,1.000,11.000,5.000,0
"05/02/07","17:16:21",28750.000,"cc",28264.764,1,0.100,23851.000,0.200,4391.000,0.300,457.000,0.500,43.000,1.000,8.000,5.000,0
"05/02/07","17:16:27",28827.000,"cc",28342.195,1,0.100,23913.000,0.200,4407.000,0.300,449.000,0.500,51.000,1.000,7.000,5.000,0
"05/02/07","17:16:33",28519.000,"cc",28361.260,1,0.100,23646.000,0.200,4364.000,0.300,450.000,0.500,55.000,1.000,4.000,5.000,0
"05/02/07","17:16:39",28710.000,"cc",28310.467,1,0.100,23754.000,0.200,4485.000,0.300,425.000,0.500,34.000,1.000,12.000,5.000,0
"05/02/07","17:16:45",28692.000,"cc",28312.078,1,0.100,23938.000,0.200,4284.000,0.300,428.000,0.500,41.000,1.000,1.000,5.000,0
"05/02/07","17:16:51",28427.000,"cc",28295.797,1,0.100,23658.000,0.200,4268.000,0.300,450.000,0.500,42.000,1.000,9.000,5.000,0
"05/02/07","17:16:57",28464.000,"cc",28314.949,1,0.100,23555.000,0.200,4413.000,0.300,456.000,0.500,35.000,1.000,5.000,5.000,0
"05/02/07","17:17:03",28407.000,"cc",28341.602,1,0.100,23630.000,0.200,4295.000,0.300,437.000,0.500,40.000,1.000,5.000,5.000,0
"05/02/07","17:17:09",28520.000,"cc",28234.107,1,0.100,23764.000,0.200,4333.000,0.300,390.000,0.500,27.000,1.000,6.000,5.000,0
"05/02/07","17:17:15",28052.000,"cc",28302.207,1,0.100,23352.000,0.200,4248.000,0.300,414.000,0.500,37.000,1.000,1.000,5.000,0
"05/02/07","17:17:21",28341.000,"cc",28266.871,1,0.100,23656.000,0.200,4219.000,0.300,409.000,0.500,49.000,1.000,8.000,5.000,0
"05/02/07","17:17:27",28859.000,"cc",28325.234,1,0.100,23871.000,0.200,4505.000,0.300,434.000,0.500,42.000,1.000,7.000,5.000,0
"05/02/07","17:17:33",29217.000,"cc",28339.229,1,0.100,24291.000,0.200,4416.000,0.300,456.000,0.500,46.000,1.000,8.000,5.000,0
"05/02/07","17:17:39",30369.000,"cc",28340.926,1,0.100,25241.000,0.200,4580.000,0.300,478.000,0.500,64.000,1.000,6.000,5.000,0